PDT,Max TemperatureF,Mean TemperatureF,Min TemperatureF,Max Dew PointF,MeanDew PointF,Min DewpointF,Max Humidity, Mean Humidity, Min Humidity, Max Sea Level PressureIn, Mean Sea Level PressureIn, Min Sea Level PressureIn, Max VisibilityMiles, Mean VisibilityMiles, Min VisibilityMiles, Max Wind SpeedMPH, Mean Wind SpeedMPH, Max Gust SpeedMPH,PrecipitationIn, CloudCover, Events, WindDirDegrees
2011-9-1,77,56,35,38,33,27,79,47,15,30.20,30.00,29.88,10,10,10,12,3,17,0.00,0,,183
2011-9-2,79,57,35,42,32,27,70,43,16,30.22,30.08,30.03,10,10,10,10,3,14,0.00,0,,79
2011-9-3,82,61,39,44,36,25,79,46,13,30.22,30.05,30.00,10,10,10,13,3,17,0.00,0,,187
2011-9-4,81,62,42,43,35,20,82,46,10,30.20,30.04,29.99,10,10,10,17,3,24,0.00,1,,181
2011-9-5,79,61,43,37,32,20,65,38,11,30.20,30.05,29.99,10,10,10,17,4,31,0.00,0,,203
2011-9-6,81,60,38,41,35,30,76,46,16,30.33,30.16,30.10,10,10,10,5,2,5,0.00,0,,149
2011-9-7,81,61,40,45,38,33,73,46,19,30.37,30.20,30.16,10,10,10,13,2,15,0.00,1,,43
2011-9-8,79,63,46,47,42,32,86,53,19,30.34,30.18,30.11,10,10,10,13,2,17,0.04,2,Rain-Thunderstorm,30
2011-9-9,80,61,42,41,35,25,82,48,13,30.14,30.05,29.96,10,10,10,16,4,24,0.00,0,,130
2011-9-10,77,60,43,46,40,34,80,52,23,30.15,30.03,29.95,10,10,2,24,4,30,0.07,2,Rain-Thunderstorm,174
2011-9-11,71,58,44,52,48,40,93,67,40,30.25,30.12,29.99,10,9,2,12,3,14,0.08,5,Rain-Thunderstorm,182
2011-9-12,72,58,44,49,46,41,93,66,38,30.33,30.22,30.12,10,9,1,16,5,24,0.16,5,Rain-Thunderstorm,193
2011-9-13,74,58,42,48,43,37,93,60,27,30.33,30.20,30.10,10,9,2,13,4,18,0.00,2,Thunderstorm,185
2011-9-14,76,59,41,49,44,38,89,60,31,30.23,30.04,29.95,10,10,10,15,4,20,0.00,1,,179
2011-9-15,73,58,42,46,42,38,89,61,33,30.13,29.95,29.86,10,10,10,20,7,25,0.00,0,,197
2011-9-16,69,55,41,43,39,34,76,54,32,30.06,29.93,29.87,10,10,10,20,5,26,T,1,Rain,200
2011-9-17,72,53,34,42,35,28,82,53,24,30.21,30.11,30.02,10,10,10,10,3,15,0.00,0,,158
2011-9-18,76,57,37,40,37,30,85,53,21,30.35,30.22,30.16,10,10,10,12,2,15,0.00,0,,171
2011-9-19,79,59,38,44,39,33,85,54,23,30.33,30.18,30.11,10,10,10,12,2,14,0.00,0,,171
2011-9-20,80,60,39,43,37,29,85,51,16,30.23,30.13,30.05,10,10,10,10,2,14,0.00,0,,174
2011-9-21,81,60,39,46,38,33,85,53,20,30.26,30.12,30.05,10,10,10,17,3,23,0.00,1,,190
2011-9-22,83,62,41,44,37,31,76,46,15,30.32,30.17,30.12,10,10,10,9,2,13,0.00,0,,166
2011-9-23,82,61,40,44,37,32,79,48,17,30.37,30.20,30.10,10,10,10,10,2,33,0.00,1,,158
2011-9-24,77,60,42,47,38,33,76,49,21,30.15,30.05,29.95,10,10,9,16,4,23,T,3,Rain-Thunderstorm,203
2011-9-25,66,53,40,40,35,29,76,52,28,30.12,30.00,29.94,10,10,10,20,5,28,0.00,2,,204
2011-9-26,75,55,35,40,36,31,89,56,23,30.23,30.11,30.03,10,10,10,9,2,16,0.00,0,,191
2011-9-27,80,59,38,46,39,33,85,52,19,30.29,30.15,30.10,10,10,9,9,3,15,0.00,0,,44
2011-9-28,81,60,39,46,40,34,79,51,23,30.23,30.16,30.10,10,10,7,14,3,20,0.00,0,,188
2011-9-29,81,60,38,43,36,29,85,51,16,30.30,30.14,30.06,10,10,10,17,2,22,0.00,0,,180
2011-9-30,80,59,38,41,36,32,85,52,19,30.11,30.00,29.91,10,10,10,24,6,33,0.00,0,,195